NKS651 KFLL-SKAR

Flight info

Callsign NKS651
Flight time 3h 6m
Altitude 35000
Route REGAE2 URSUS UP406 AKPEK UQ121 RNG DCT MATRO MATRO1H
Aircraft A20N/M-SDE2E3FGHIRWXY/LB1

Departure

Time 2026-04-14 21:32
Airport Fort Lauderdale Hollywood International Airport (KFLL)

Arrival

Time 2026-04-15 00:38
Airport El Eden Airport (SKAR)
Time Latitude Longitude Altitude Speed Heading
2026-04-14 20:36 26.06878 -80.14297 10 ft 0 kts
2026-04-14 21:20 26.06869 -80.14297 10 ft 2 kts 359°
2026-04-14 21:20 26.06854 -80.14297 10 ft 2 kts
2026-04-14 21:21 26.06839 -80.14297 10 ft 2 kts 360°
2026-04-14 21:21 26.06824 -80.14296 9 ft 2 kts
2026-04-14 21:21 26.06809 -80.14296 9 ft 2 kts 360°
2026-04-14 21:21 26.06794 -80.14296 10 ft 2 kts
2026-04-14 21:22 26.06779 -80.14296 10 ft 2 kts 360°
2026-04-14 21:22 26.06766 -80.14296 9 ft 0 kts
2026-04-14 21:22 26.06757 -80.14295 9 ft 1 kts 324°
2026-04-14 21:22 26.06751 -80.14285 10 ft 0 kts 274°
2026-04-14 21:23 26.06751 -80.14278 9 ft 1 kts 269°
2026-04-14 21:23 26.06751 -80.14277 9 ft 0 kts 269°
2026-04-14 21:26 26.06751 -80.14278 9 ft 0 kts 269°
2026-04-14 21:26 26.06751 -80.14304 9 ft 10 kts 269°
2026-04-14 21:27 26.06752 -80.14432 9 ft 20 kts 271°
2026-04-14 21:27 26.06753 -80.14532 9 ft 5 kts 271°
2026-04-14 21:27 26.06763 -80.14611 9 ft 14 kts 279°
2026-04-14 21:27 26.06767 -80.14740 9 ft 17 kts 270°
2026-04-14 21:28 26.06768 -80.14896 9 ft 22 kts 270°
2026-04-14 21:28 26.06770 -80.15077 10 ft 20 kts 267°
2026-04-14 21:28 26.06697 -80.15191 9 ft 18 kts 269°
2026-04-14 21:28 26.06697 -80.15334 9 ft 19 kts 270°
2026-04-14 21:29 26.06698 -80.15486 9 ft 19 kts 270°
2026-04-14 21:29 26.06699 -80.15636 9 ft 19 kts 270°
2026-04-14 21:29 26.06698 -80.15784 9 ft 18 kts 259°
2026-04-14 21:29 26.06685 -80.15810 9 ft 0 kts 220°
2026-04-14 21:30 26.06684 -80.15812 9 ft 2 kts 217°
2026-04-14 21:30 26.06632 -80.15823 9 ft 11 kts 180°
2026-04-14 21:30 26.06587 -80.15801 9 ft 0 kts 90°
2026-04-14 21:31 26.06587 -80.15791 9 ft 6 kts 90°
2026-04-14 21:31 26.06586 -80.15449 10 ft 80 kts 90°
2026-04-14 21:31 26.06582 -80.14588 10 ft 141 kts 90°
2026-04-14 21:31 26.06572 -80.13350 287 ft 167 kts 90°
2026-04-14 21:32 26.06564 -80.12091 982 ft 165 kts 89°
2026-04-14 21:32 26.06578 -80.10818 1673 ft 167 kts 88°
2026-04-14 21:32 26.06600 -80.09502 2202 ft 179 kts 87°
2026-04-14 21:32 26.06626 -80.08057 2663 ft 196 kts 87°
2026-04-14 21:33 26.06652 -80.06456 3067 ft 218 kts 87°
2026-04-14 21:33 26.06679 -80.04707 3534 ft 239 kts 87°
2026-04-14 21:33 26.06706 -80.02778 3926 ft 258 kts 87°
2026-04-14 21:33 26.06733 -80.00741 3996 ft 263 kts 88°
2026-04-14 21:34 26.06727 -79.98711 4000 ft 263 kts 89°
2026-04-14 21:34 26.06703 -79.96691 4002 ft 263 kts 89°
2026-04-14 21:34 26.06678 -79.94651 4003 ft 263 kts 89°
2026-04-14 21:34 26.06655 -79.92623 4003 ft 263 kts 89°
2026-04-14 21:35 26.06633 -79.90582 4003 ft 263 kts 89°
2026-04-14 21:35 26.06612 -79.88529 4003 ft 263 kts 89°
2026-04-14 21:35 26.06592 -79.86500 4046 ft 267 kts 89°
2026-04-14 21:35 26.06562 -79.84405 4647 ft 275 kts 90°
2026-04-14 21:36 26.06412 -79.82319 5641 ft 274 kts 95°
2026-04-14 21:36 26.06122 -79.80222 6468 ft 279 kts 98°
2026-04-14 21:36 26.05791 -79.78089 7267 ft 284 kts 98°
2026-04-14 21:36 26.05450 -79.75925 8072 ft 289 kts 99°
2026-04-14 21:37 26.05102 -79.73716 8873 ft 293 kts 99°
2026-04-14 21:37 26.04752 -79.71484 9661 ft 297 kts 99°
2026-04-14 21:37 26.04398 -79.69220 10422 ft 301 kts 99°
2026-04-14 21:37 26.04033 -79.66885 10881 ft 316 kts 99°
2026-04-14 21:38 26.03602 -79.64436 11458 ft 325 kts 103°
2026-04-14 21:38 26.03045 -79.62004 12221 ft 328 kts 105°
2026-04-14 21:38 26.02457 -79.59560 12954 ft 331 kts 105°
2026-04-14 21:38 26.01856 -79.57077 13630 ft 335 kts 105°
2026-04-14 21:39 26.01248 -79.54560 14296 ft 340 kts 105°
2026-04-14 21:39 26.00607 -79.52018 14947 ft 344 kts 110°
2026-04-14 21:39 25.99398 -79.49700 15544 ft 348 kts 134°
2026-04-14 21:39 25.97491 -79.48111 16172 ft 347 kts 158°
2026-04-14 21:40 25.95180 -79.47368 16824 ft 347 kts 171°
2026-04-14 21:40 25.92782 -79.46896 17448 ft 350 kts 172°
2026-04-14 21:40 25.90389 -79.46437 18036 ft 354 kts 172°
2026-04-14 21:40 25.87974 -79.45950 18630 ft 357 kts 172°
2026-04-14 21:41 25.85502 -79.45545 19204 ft 358 kts 181°
2026-04-14 21:41 25.83073 -79.45879 19752 ft 355 kts 200°
2026-04-14 21:41 25.80850 -79.47035 20341 ft 352 kts 214°
2026-04-14 21:41 25.78790 -79.48520 20935 ft 353 kts 216°
2026-04-14 21:42 25.76749 -79.50038 21487 ft 356 kts 216°
2026-04-14 21:42 25.74694 -79.51556 22045 ft 359 kts 216°
2026-04-14 21:42 25.72589 -79.53094 22609 ft 361 kts 216°
2026-04-14 21:42 25.70490 -79.54618 23155 ft 363 kts 216°
2026-04-14 21:43 25.68390 -79.56169 23690 ft 365 kts 218°
2026-04-14 21:43 25.66351 -79.57855 24217 ft 366 kts 221°
2026-04-14 21:43 25.64359 -79.59596 24728 ft 368 kts 221°
2026-04-14 21:43 25.62339 -79.61366 25231 ft 370 kts 221°
2026-04-14 21:44 25.60318 -79.63138 25716 ft 372 kts 221°
2026-04-14 21:44 25.58284 -79.64919 26191 ft 374 kts 221°
2026-04-14 21:44 25.56241 -79.66708 26655 ft 376 kts 221°
2026-04-14 21:44 25.54172 -79.68520 27111 ft 378 kts 221°
2026-04-14 21:45 25.52126 -79.70309 27547 ft 380 kts 221°
2026-04-14 21:45 25.50043 -79.72131 27973 ft 381 kts 221°
2026-04-14 21:45 25.47949 -79.73961 28379 ft 383 kts 221°
2026-04-14 21:45 25.45866 -79.75781 28764 ft 385 kts 221°
2026-04-14 21:46 25.43775 -79.77605 29133 ft 386 kts 221°
2026-04-14 21:46 25.41648 -79.79462 29491 ft 388 kts 221°
2026-04-14 21:46 25.39472 -79.81195 29811 ft 393 kts 214°
2026-04-14 21:46 25.36957 -79.82471 30114 ft 401 kts 202°
2026-04-14 21:47 25.34244 -79.83144 30413 ft 410 kts 191°
2026-04-14 21:47 25.31354 -79.83176 30702 ft 420 kts 179°
2026-04-14 21:47 25.28506 -79.82547 31133 ft 423 kts 170°
2026-04-14 21:47 25.25680 -79.81657 31635 ft 420 kts 169°
2026-04-14 21:48 25.22846 -79.80728 32038 ft 418 kts 169°
2026-04-14 21:48 25.20094 -79.79829 32377 ft 417 kts 169°
2026-04-14 21:48 25.17315 -79.78929 32708 ft 416 kts 170°
2026-04-14 21:48 25.14534 -79.78036 33038 ft 415 kts 170°
2026-04-14 21:49 25.11762 -79.77148 33361 ft 414 kts 170°
2026-04-14 21:49 25.09016 -79.76273 33646 ft 414 kts 170°
2026-04-14 21:49 25.06246 -79.75394 33880 ft 415 kts 169°
2026-04-14 21:49 25.03486 -79.74519 34095 ft 417 kts 169°
2026-04-14 21:50 25.00686 -79.73629 34310 ft 418 kts 169°
2026-04-14 21:50 24.97899 -79.72742 34521 ft 419 kts 168°
2026-04-14 21:50 24.95121 -79.71850 34726 ft 421 kts 167°
2026-04-14 21:50 24.92355 -79.70822 34927 ft 423 kts 164°
2026-04-14 21:51 24.89612 -79.69599 35125 ft 427 kts 160°
2026-04-14 21:51 24.86914 -79.68182 35173 ft 430 kts 156°
2026-04-14 21:51 24.81703 -79.64793 35184 ft 443 kts 151°
2026-04-14 21:52 24.76489 -79.61104 35186 ft 454 kts 151°
2026-04-14 21:52 24.71130 -79.57320 35185 ft 463 kts 151°
2026-04-14 21:53 24.65640 -79.53457 35185 ft 471 kts 151°
2026-04-14 21:53 24.60099 -79.49564 35185 ft 478 kts 151°
2026-04-14 21:54 24.54507 -79.45642 35184 ft 483 kts 151°
2026-04-14 21:54 24.48828 -79.41662 35184 ft 485 kts 151°
2026-04-14 21:55 24.43138 -79.37679 35183 ft 485 kts 151°
2026-04-14 21:55 24.37479 -79.33723 35181 ft 485 kts 151°
2026-04-14 21:56 24.31796 -79.29756 35183 ft 484 kts 151°
2026-04-14 21:56 24.26170 -79.25763 35183 ft 485 kts 150°
2026-04-14 21:57 24.20549 -79.21710 35183 ft 485 kts 150°
2026-04-14 21:57 24.14942 -79.17683 35183 ft 485 kts 150°
2026-04-14 21:58 24.09303 -79.13643 35183 ft 484 kts 150°
2026-04-14 21:58 24.03523 -79.09975 35183 ft 480 kts 157°
2026-04-14 21:59 23.97358 -79.07137 35183 ft 476 kts 165°
2026-04-14 21:59 23.91052 -79.05222 35183 ft 472 kts 172°
2026-04-14 22:00 23.84589 -79.03916 35183 ft 471 kts 173°
2026-04-14 22:00 23.78118 -79.02647 35183 ft 471 kts 173°
2026-04-14 22:01 23.71699 -79.01383 35183 ft 471 kts 173°
2026-04-14 22:01 23.65260 -79.00111 35186 ft 471 kts 173°
2026-04-14 22:02 23.58775 -78.98831 35191 ft 471 kts 173°
2026-04-14 22:02 23.52352 -78.97564 35194 ft 471 kts 173°
2026-04-14 22:03 23.45954 -78.96303 35197 ft 471 kts 173°
2026-04-14 22:03 23.39512 -78.95034 35199 ft 471 kts 173°
2026-04-14 22:04 23.33040 -78.93761 35200 ft 471 kts 173°
2026-04-14 22:04 23.26615 -78.92498 35200 ft 471 kts 173°
2026-04-14 22:05 23.20162 -78.91232 35200 ft 471 kts 173°
2026-04-14 22:05 23.13700 -78.89962 35200 ft 471 kts 173°
2026-04-14 22:06 23.07266 -78.88699 35200 ft 471 kts 173°
2026-04-14 22:06 23.00814 -78.87434 35200 ft 471 kts 173°
2026-04-14 22:07 22.94339 -78.86169 35200 ft 473 kts 173°
2026-04-14 22:07 22.87841 -78.84898 35200 ft 475 kts 172°
2026-04-14 22:08 22.81325 -78.83624 35200 ft 476 kts 172°
2026-04-14 22:08 22.74833 -78.82354 35200 ft 476 kts 172°
2026-04-14 22:09 22.68307 -78.81082 35200 ft 476 kts 172°
2026-04-14 22:09 22.61790 -78.79813 35200 ft 476 kts 172°
2026-04-14 22:10 22.55274 -78.78543 35200 ft 476 kts 172°
2026-04-14 22:10 22.48735 -78.77271 35200 ft 476 kts 172°
2026-04-14 22:11 22.42272 -78.76016 35200 ft 476 kts 172°
2026-04-14 22:11 22.35760 -78.74754 35200 ft 476 kts 172°
2026-04-14 22:12 22.29235 -78.73489 35200 ft 476 kts 172°
2026-04-14 22:12 22.22746 -78.72234 35201 ft 476 kts 172°
2026-04-14 22:13 22.16207 -78.70968 35200 ft 476 kts 172°
2026-04-14 22:13 22.09693 -78.69708 35200 ft 476 kts 172°
2026-04-14 22:14 22.03195 -78.68453 35200 ft 476 kts 172°
2026-04-14 22:14 21.96678 -78.67196 35201 ft 476 kts 172°
2026-04-14 22:15 21.90172 -78.65942 35200 ft 476 kts 172°
2026-04-14 22:15 21.83672 -78.64690 35200 ft 476 kts 172°
2026-04-14 22:16 21.77166 -78.63439 35200 ft 476 kts 172°
2026-04-14 22:16 21.70657 -78.62189 35187 ft 475 kts 172°
2026-04-14 22:17 21.64152 -78.60940 35135 ft 476 kts 172°
2026-04-14 22:17 21.57657 -78.59694 35107 ft 476 kts 172°
2026-04-14 22:18 21.51146 -78.58446 35096 ft 476 kts 172°
2026-04-14 22:18 21.44626 -78.57197 35092 ft 476 kts 172°
2026-04-14 22:19 21.34844 -78.55327 35092 ft 476 kts 172°
2026-04-14 22:20 21.28313 -78.54079 35091 ft 476 kts 172°
2026-04-14 22:20 21.21778 -78.52831 35092 ft 476 kts 172°
2026-04-14 22:21 21.15261 -78.51588 35092 ft 476 kts 172°
2026-04-14 22:21 21.08753 -78.50349 35091 ft 476 kts 172°
2026-04-14 22:22 21.02223 -78.49107 35091 ft 477 kts 172°
2026-04-14 22:22 20.95668 -78.47861 35091 ft 477 kts 172°
2026-04-14 22:23 20.89125 -78.46616 35091 ft 477 kts 172°
2026-04-14 22:23 20.82602 -78.45377 35091 ft 477 kts 172°
2026-04-14 22:24 20.76077 -78.44140 35091 ft 477 kts 172°
2026-04-14 22:24 20.69562 -78.42905 35091 ft 477 kts 172°
2026-04-14 22:25 20.63030 -78.41668 35091 ft 477 kts 172°
2026-04-14 22:25 20.56515 -78.40436 35091 ft 477 kts 172°
2026-04-14 22:26 20.50038 -78.39211 35091 ft 477 kts 172°
2026-04-14 22:26 20.43490 -78.37974 35091 ft 477 kts 172°
2026-04-14 22:27 20.36944 -78.36739 35091 ft 477 kts 172°
2026-04-14 22:27 20.30455 -78.35516 35091 ft 477 kts 172°
2026-04-14 22:28 20.23901 -78.34281 35091 ft 477 kts 172°
2026-04-14 22:28 20.17390 -78.33056 35091 ft 477 kts 172°
2026-04-14 22:29 20.10855 -78.31827 35091 ft 477 kts 172°
2026-04-14 22:29 20.04358 -78.30608 35087 ft 477 kts 172°
2026-04-14 22:30 19.97839 -78.29373 35082 ft 477 kts 171°
2026-04-14 22:30 19.91366 -78.27905 35076 ft 477 kts 170°
2026-04-14 22:31 19.84871 -78.26407 35063 ft 477 kts 170°
2026-04-14 22:31 19.78400 -78.24916 35049 ft 477 kts 170°
2026-04-14 22:32 19.71923 -78.23425 35041 ft 478 kts 170°
2026-04-14 22:32 19.65471 -78.21943 35038 ft 478 kts 170°
2026-04-14 22:33 19.59022 -78.20462 35037 ft 478 kts 170°
2026-04-14 22:33 19.52551 -78.18978 35037 ft 478 kts 170°
2026-04-14 22:34 19.46078 -78.17495 35037 ft 478 kts 170°
2026-04-14 22:34 19.39594 -78.16010 35037 ft 478 kts 170°
2026-04-14 22:35 19.33083 -78.14520 35037 ft 478 kts 170°
2026-04-14 22:35 19.26636 -78.13046 35037 ft 478 kts 170°
2026-04-14 22:36 19.20110 -78.11556 35037 ft 478 kts 170°
2026-04-14 22:36 19.13646 -78.10080 35037 ft 478 kts 170°
2026-04-14 22:37 19.07187 -78.08607 35037 ft 478 kts 170°
2026-04-14 22:37 19.00691 -78.07129 35035 ft 478 kts 169°
2026-04-14 22:38 18.94165 -78.05652 35036 ft 481 kts 169°
2026-04-14 22:38 18.87588 -78.04158 35038 ft 479 kts 168°
2026-04-14 22:39 18.81105 -78.02678 35037 ft 478 kts 168°
2026-04-14 22:39 18.74653 -78.01207 35037 ft 478 kts 168°
2026-04-14 22:40 18.68140 -77.99726 35037 ft 478 kts 168°
2026-04-14 22:40 18.61635 -77.98251 35037 ft 478 kts 168°
2026-04-14 22:41 18.55153 -77.96781 35037 ft 478 kts 168°
2026-04-14 22:41 18.48650 -77.95309 35037 ft 478 kts 168°
2026-04-14 22:42 18.42124 -77.93832 35037 ft 478 kts 168°
2026-04-14 22:42 18.35640 -77.92366 35037 ft 478 kts 168°
2026-04-14 22:43 18.29147 -77.90899 35037 ft 478 kts 168°
2026-04-14 22:43 18.22648 -77.89432 35037 ft 478 kts 168°
2026-04-14 22:44 18.16152 -77.87966 35037 ft 478 kts 168°
2026-04-14 22:44 18.09711 -77.86514 35037 ft 478 kts 168°
2026-04-14 22:45 18.03204 -77.85049 35037 ft 478 kts 168°
2026-04-14 22:45 17.96700 -77.83585 35037 ft 478 kts 168°
2026-04-14 22:46 17.90185 -77.82120 35037 ft 478 kts 168°
2026-04-14 22:46 17.83712 -77.80665 35037 ft 478 kts 168°
2026-04-14 22:47 17.77219 -77.79207 35037 ft 478 kts 168°
2026-04-14 22:47 17.70721 -77.77749 35037 ft 478 kts 168°
2026-04-14 22:48 17.64249 -77.76298 35037 ft 478 kts 168°
2026-04-14 22:48 17.57758 -77.74844 35037 ft 478 kts 168°
2026-04-14 22:49 17.51275 -77.73392 35034 ft 478 kts 168°
2026-04-14 22:49 17.44764 -77.71935 35030 ft 478 kts 168°
2026-04-14 22:50 17.38260 -77.70480 35022 ft 478 kts 168°
2026-04-14 22:50 17.31770 -77.69031 35005 ft 478 kts 168°
2026-04-14 22:51 17.25353 -77.67598 34984 ft 478 kts 168°
2026-04-14 22:51 17.18863 -77.66150 34968 ft 479 kts 168°
2026-04-14 22:52 17.12352 -77.64698 34960 ft 479 kts 168°
2026-04-14 22:52 17.05860 -77.63257 34957 ft 478 kts 167°
2026-04-14 22:53 16.99353 -77.61809 34958 ft 475 kts 167°
2026-04-14 22:53 16.92950 -77.60379 34956 ft 472 kts 167°
2026-04-14 22:54 16.86545 -77.58955 34956 ft 471 kts 167°
2026-04-14 22:54 16.80121 -77.57528 34956 ft 471 kts 167°
2026-04-14 22:55 16.73746 -77.56113 34956 ft 471 kts 167°
2026-04-14 22:55 16.67314 -77.54686 34956 ft 471 kts 167°
2026-04-14 22:56 16.60923 -77.53269 34956 ft 471 kts 167°
2026-04-14 22:56 16.54488 -77.51843 34956 ft 471 kts 167°
2026-04-14 22:57 16.48110 -77.50431 34956 ft 471 kts 167°
2026-04-14 22:57 16.41664 -77.49005 34956 ft 471 kts 167°
2026-04-14 22:58 16.35267 -77.47591 34956 ft 471 kts 167°
2026-04-14 22:58 16.28888 -77.46182 34956 ft 471 kts 167°
2026-04-14 22:59 16.22473 -77.44765 34956 ft 471 kts 167°
2026-04-14 22:59 16.16118 -77.43362 34956 ft 471 kts 167°
2026-04-14 23:00 16.09706 -77.41949 34956 ft 471 kts 167°
2026-04-14 23:00 16.03330 -77.40543 34956 ft 471 kts 167°
2026-04-14 23:01 15.96913 -77.39134 34955 ft 471 kts 168°
2026-04-14 23:01 15.90475 -77.37835 34956 ft 471 kts 169°
2026-04-14 23:02 15.84007 -77.36559 34956 ft 471 kts 169°
2026-04-14 23:02 15.77584 -77.35287 34965 ft 471 kts 168°
2026-04-14 23:03 15.71099 -77.33997 34988 ft 471 kts 169°
2026-04-14 23:03 15.64632 -77.32711 35001 ft 471 kts 169°
2026-04-14 23:04 15.58216 -77.31435 35006 ft 471 kts 169°
2026-04-14 23:04 15.51769 -77.30154 35008 ft 471 kts 169°
2026-04-14 23:05 15.45316 -77.28872 35008 ft 471 kts 169°
2026-04-14 23:05 15.38898 -77.27599 35009 ft 471 kts 169°
2026-04-14 23:06 15.32440 -77.26318 35007 ft 471 kts 169°
2026-04-14 23:06 15.25960 -77.25033 34978 ft 471 kts 169°
2026-04-14 23:07 15.19556 -77.23764 34922 ft 471 kts 169°
2026-04-14 23:07 15.13097 -77.22485 34865 ft 471 kts 169°
2026-04-14 23:08 15.06620 -77.21204 34835 ft 472 kts 169°
2026-04-14 23:08 15.00168 -77.19929 34824 ft 471 kts 169°
2026-04-14 23:09 14.93731 -77.18638 34819 ft 471 kts 168°
2026-04-14 23:09 14.87305 -77.17341 34818 ft 471 kts 168°
2026-04-14 23:10 14.80894 -77.16046 34818 ft 471 kts 168°
2026-04-14 23:10 14.74466 -77.14750 34817 ft 471 kts 168°
2026-04-14 23:11 14.68022 -77.13452 34817 ft 471 kts 168°
2026-04-14 23:11 14.61615 -77.12163 34817 ft 471 kts 168°
2026-04-14 23:12 14.55207 -77.10876 34817 ft 471 kts 168°
2026-04-14 23:12 14.48747 -77.09578 34817 ft 471 kts 168°
2026-04-14 23:13 14.42332 -77.08291 34817 ft 471 kts 168°
2026-04-14 23:13 14.35907 -77.07001 34817 ft 471 kts 168°
2026-04-14 23:14 14.29473 -77.05711 34817 ft 471 kts 168°
2026-04-14 23:14 14.23052 -77.04425 34817 ft 471 kts 168°
2026-04-14 23:15 14.16625 -77.03138 34817 ft 471 kts 168°
2026-04-14 23:15 14.10187 -77.01849 34817 ft 470 kts 168°
2026-04-14 23:16 14.03761 -77.00565 34817 ft 470 kts 168°
2026-04-14 23:16 13.97326 -76.99278 34817 ft 470 kts 168°
2026-04-14 23:17 13.90874 -76.97989 34817 ft 470 kts 168°
2026-04-14 23:17 13.84450 -76.96706 34818 ft 470 kts 168°
2026-04-14 23:18 13.74781 -76.94776 34817 ft 470 kts 168°
2026-04-14 23:18 13.68340 -76.93492 34819 ft 470 kts 168°
2026-04-14 23:19 13.61913 -76.92211 34822 ft 470 kts 168°
2026-04-14 23:19 13.55456 -76.90925 34827 ft 470 kts 168°
2026-04-14 23:20 13.49027 -76.89645 34828 ft 470 kts 168°
2026-04-14 23:20 13.42588 -76.88364 34828 ft 470 kts 168°
2026-04-14 23:21 13.36154 -76.87084 34829 ft 470 kts 168°
2026-04-14 23:21 13.29712 -76.85804 34833 ft 470 kts 168°
2026-04-14 23:22 13.23282 -76.84527 34838 ft 470 kts 168°
2026-04-14 23:22 13.16807 -76.83241 34842 ft 470 kts 168°
2026-04-14 23:23 13.10389 -76.81967 34844 ft 470 kts 168°
2026-04-14 23:23 13.03972 -76.80690 34844 ft 469 kts 168°
2026-04-14 23:24 12.97563 -76.79417 34844 ft 469 kts 169°
2026-04-14 23:24 12.91129 -76.78146 34844 ft 470 kts 169°
2026-04-14 23:25 12.84736 -76.76883 34844 ft 470 kts 169°
2026-04-14 23:25 12.78294 -76.75609 34844 ft 470 kts 169°
2026-04-14 23:26 12.71839 -76.74332 34844 ft 470 kts 169°
2026-04-14 23:26 12.65410 -76.73063 34844 ft 470 kts 169°
2026-04-14 23:27 12.58990 -76.71801 34844 ft 470 kts 169°
2026-04-14 23:27 12.52587 -76.70544 34844 ft 470 kts 169°
2026-04-14 23:28 12.46189 -76.69287 34844 ft 470 kts 169°
2026-04-14 23:28 12.39760 -76.68025 34844 ft 470 kts 169°
2026-04-14 23:29 12.33332 -76.66764 34844 ft 470 kts 169°
2026-04-14 23:29 12.26913 -76.65505 34844 ft 470 kts 169°
2026-04-14 23:30 12.20494 -76.64247 34844 ft 470 kts 169°
2026-04-14 23:30 12.14062 -76.62987 34844 ft 470 kts 169°
2026-04-14 23:31 12.07678 -76.61738 34844 ft 470 kts 169°
2026-04-14 23:31 12.01247 -76.60479 34844 ft 470 kts 169°
2026-04-14 23:32 11.94888 -76.59235 34844 ft 470 kts 169°
2026-04-14 23:32 11.88449 -76.57976 34844 ft 470 kts 169°
2026-04-14 23:33 11.82013 -76.56719 34844 ft 470 kts 169°
2026-04-14 23:33 11.75666 -76.55479 34844 ft 470 kts 169°
2026-04-14 23:34 11.69204 -76.54218 34844 ft 470 kts 169°
2026-04-14 23:34 11.62805 -76.52969 34844 ft 470 kts 169°
2026-04-14 23:35 11.56381 -76.51717 34844 ft 470 kts 169°
2026-04-14 23:35 11.49950 -76.50462 34844 ft 470 kts 169°
2026-04-14 23:36 11.43561 -76.49218 34844 ft 470 kts 169°
2026-04-14 23:36 11.37179 -76.47974 34844 ft 470 kts 169°
2026-04-14 23:37 11.30766 -76.46726 34844 ft 470 kts 169°
2026-04-14 23:37 11.24421 -76.45491 34844 ft 470 kts 169°
2026-04-14 23:38 11.18056 -76.44253 34844 ft 470 kts 169°
2026-04-14 23:38 11.11723 -76.43021 34844 ft 470 kts 169°
2026-04-14 23:39 11.05306 -76.41775 34844 ft 470 kts 169°
2026-04-14 23:39 10.98894 -76.40531 34844 ft 470 kts 168°
2026-04-14 23:40 10.92414 -76.39275 34842 ft 473 kts 168°
2026-04-14 23:40 10.86154 -76.38058 34842 ft 477 kts 168°
2026-04-14 23:41 10.79661 -76.36797 34844 ft 478 kts 168°
2026-04-14 23:41 10.73127 -76.35530 34844 ft 478 kts 168°
2026-04-14 23:42 10.66593 -76.34264 34844 ft 478 kts 168°
2026-04-14 23:42 10.60025 -76.32992 34844 ft 478 kts 168°
2026-04-14 23:43 10.53518 -76.31731 34844 ft 478 kts 168°
2026-04-14 23:43 10.46953 -76.30460 34844 ft 478 kts 168°
2026-04-14 23:44 10.40471 -76.29207 34844 ft 478 kts 168°
2026-04-14 23:44 10.33956 -76.27947 34844 ft 478 kts 168°
2026-04-14 23:45 10.27563 -76.26711 34844 ft 478 kts 168°
2026-04-14 23:45 10.21012 -76.25445 34844 ft 478 kts 168°
2026-04-14 23:46 10.14484 -76.24184 34844 ft 478 kts 168°
2026-04-14 23:46 10.07959 -76.22924 34844 ft 478 kts 168°
2026-04-14 23:47 10.01388 -76.21656 34844 ft 478 kts 168°
2026-04-14 23:47 9.94842 -76.20393 34844 ft 478 kts 168°
2026-04-14 23:48 9.88275 -76.19127 34844 ft 478 kts 168°
2026-04-14 23:48 9.81755 -76.17870 34844 ft 478 kts 168°
2026-04-14 23:49 9.75205 -76.16608 34844 ft 478 kts 168°
2026-04-14 23:49 9.68654 -76.15345 34844 ft 478 kts 168°
2026-04-14 23:50 9.62137 -76.14090 34844 ft 478 kts 168°
2026-04-14 23:50 9.55583 -76.12824 34844 ft 478 kts 168°
2026-04-14 23:51 9.49057 -76.11522 34844 ft 478 kts 168°
2026-04-14 23:51 9.42538 -76.10216 34844 ft 478 kts 168°
2026-04-14 23:52 9.35994 -76.08910 34844 ft 478 kts 168°
2026-04-14 23:52 9.29483 -76.07610 34844 ft 478 kts 168°
2026-04-14 23:53 9.22937 -76.06306 34844 ft 478 kts 168°
2026-04-14 23:53 9.16406 -76.05005 34844 ft 478 kts 168°
2026-04-14 23:54 9.09895 -76.03708 34845 ft 478 kts 168°
2026-04-14 23:54 9.03412 -76.02415 34846 ft 475 kts 168°
2026-04-14 23:55 8.96907 -76.01118 34844 ft 473 kts 169°
2026-04-14 23:55 8.90463 -75.99837 34844 ft 473 kts 169°
2026-04-14 23:56 8.84086 -75.98571 34844 ft 473 kts 169°
2026-04-14 23:56 8.77861 -75.97334 34844 ft 473 kts 169°
2026-04-14 23:57 8.71412 -75.96053 34844 ft 473 kts 169°
2026-04-14 23:57 8.64950 -75.94769 34844 ft 473 kts 169°
2026-04-14 23:58 8.58524 -75.93494 34844 ft 473 kts 169°
2026-04-14 23:58 8.52052 -75.92209 34844 ft 473 kts 169°
2026-04-14 23:59 8.45576 -75.90923 34844 ft 473 kts 169°
2026-04-14 23:59 8.39139 -75.89646 34844 ft 473 kts 169°
2026-04-15 00:00 8.32674 -75.88364 34844 ft 473 kts 169°
2026-04-15 00:00 8.26168 -75.87074 34844 ft 473 kts 169°
2026-04-15 00:01 8.19723 -75.85797 34844 ft 473 kts 169°
2026-04-15 00:01 8.13261 -75.84517 34844 ft 473 kts 169°
2026-04-15 00:02 8.06784 -75.83234 34844 ft 473 kts 169°
2026-04-15 00:02 8.00300 -75.81950 34844 ft 473 kts 169°
2026-04-15 00:03 7.93848 -75.80669 34844 ft 473 kts 168°
2026-04-15 00:03 7.87402 -75.79384 34844 ft 473 kts 168°
2026-04-15 00:04 7.80873 -75.78084 34948 ft 475 kts 168°
2026-04-15 00:04 7.74411 -75.76798 35108 ft 473 kts 168°
2026-04-15 00:05 7.68051 -75.75532 35189 ft 472 kts 168°
2026-04-15 00:05 7.61640 -75.74256 35227 ft 472 kts 168°
2026-04-15 00:06 7.55225 -75.72980 35244 ft 472 kts 168°
2026-04-15 00:06 7.48758 -75.71694 35250 ft 472 kts 168°
2026-04-15 00:07 7.42366 -75.70424 35252 ft 472 kts 168°
2026-04-15 00:07 7.35912 -75.69141 35253 ft 472 kts 168°
2026-04-15 00:08 7.29475 -75.67861 35253 ft 472 kts 168°
2026-04-15 00:08 7.23040 -75.66583 35253 ft 472 kts 168°
2026-04-15 00:09 7.16624 -75.65309 35253 ft 472 kts 168°
2026-04-15 00:09 7.10176 -75.64029 35253 ft 472 kts 168°
2026-04-15 00:10 7.03838 -75.62770 35253 ft 472 kts 168°
2026-04-15 00:10 6.97330 -75.61481 35252 ft 472 kts 168°
2026-04-15 00:11 6.90866 -75.60200 35251 ft 475 kts 168°
2026-04-15 00:11 6.84359 -75.58906 35252 ft 479 kts 168°
2026-04-15 00:12 6.77849 -75.57616 35253 ft 479 kts 168°
2026-04-15 00:12 6.71336 -75.56327 35253 ft 479 kts 168°
2026-04-15 00:13 6.64808 -75.55035 35253 ft 479 kts 168°
2026-04-15 00:13 6.58314 -75.53749 35253 ft 479 kts 168°
2026-04-15 00:14 6.51774 -75.52454 35253 ft 479 kts 168°
2026-04-15 00:14 6.45230 -75.51159 35253 ft 479 kts 168°
2026-04-15 00:15 6.38676 -75.49862 35253 ft 479 kts 168°
2026-04-15 00:15 6.32143 -75.48570 35253 ft 479 kts 168°
2026-04-15 00:16 6.28944 -75.47936 35245 ft 463 kts 168°
2026-04-15 00:16 6.25831 -75.47321 35017 ft 453 kts 168°
2026-04-15 00:16 6.22726 -75.46706 34431 ft 451 kts 168°
2026-04-15 00:16 6.19703 -75.46109 33879 ft 448 kts 168°
2026-04-15 00:17 6.16631 -75.45501 33329 ft 445 kts 168°
2026-04-15 00:17 6.13623 -75.44907 32750 ft 444 kts 168°
2026-04-15 00:17 6.10581 -75.44305 32075 ft 444 kts 168°
2026-04-15 00:17 6.07580 -75.43712 31360 ft 444 kts 168°
2026-04-15 00:18 6.01576 -75.42548 29476 ft 432 kts 172°
2026-04-15 00:18 5.98659 -75.42378 29112 ft 422 kts 182°
2026-04-15 00:18 5.95726 -75.42731 28690 ft 420 kts 192°
2026-04-15 00:19 5.92972 -75.43533 28261 ft 417 kts 198°
2026-04-15 00:19 5.90229 -75.44490 27811 ft 413 kts 199°
2026-04-15 00:19 5.87583 -75.45438 27362 ft 410 kts 199°
2026-04-15 00:19 5.84923 -75.46387 26914 ft 407 kts 199°
2026-04-15 00:20 5.82271 -75.47325 26469 ft 404 kts 199°
2026-04-15 00:20 5.79596 -75.48266 26020 ft 401 kts 199°
2026-04-15 00:20 5.77002 -75.49174 25587 ft 398 kts 199°
2026-04-15 00:20 5.74393 -75.50085 25152 ft 395 kts 199°
2026-04-15 00:21 5.71802 -75.50990 24720 ft 392 kts 199°
2026-04-15 00:21 5.69251 -75.51879 24335 ft 389 kts 199°
2026-04-15 00:21 5.66711 -75.52764 23990 ft 389 kts 199°
2026-04-15 00:21 5.64149 -75.53657 23474 ft 388 kts 199°
2026-04-15 00:22 5.61625 -75.54536 23015 ft 386 kts 199°
2026-04-15 00:22 5.59090 -75.55418 22570 ft 383 kts 199°
2026-04-15 00:22 5.56591 -75.56288 22136 ft 381 kts 199°
2026-04-15 00:22 5.54117 -75.57149 21705 ft 378 kts 199°
2026-04-15 00:23 5.51629 -75.58015 21272 ft 375 kts 199°
2026-04-15 00:23 5.49168 -75.58871 20842 ft 372 kts 199°
2026-04-15 00:23 5.46757 -75.59710 20419 ft 370 kts 199°
2026-04-15 00:23 5.44315 -75.60560 19988 ft 367 kts 199°
2026-04-15 00:24 5.41932 -75.61388 19566 ft 365 kts 199°
2026-04-15 00:24 5.39548 -75.62218 19144 ft 362 kts 199°
2026-04-15 00:24 5.37150 -75.63052 18717 ft 360 kts 199°
2026-04-15 00:24 5.34904 -75.63833 18314 ft 358 kts 199°
2026-04-15 00:25 5.32582 -75.64641 17899 ft 355 kts 199°
2026-04-15 00:25 5.30267 -75.65445 17485 ft 353 kts 199°
2026-04-15 00:25 5.27965 -75.66245 17074 ft 351 kts 199°
2026-04-15 00:25 5.25660 -75.67047 16656 ft 348 kts 199°
2026-04-15 00:26 5.23382 -75.67838 16241 ft 346 kts 199°
2026-04-15 00:26 5.21125 -75.68623 15825 ft 344 kts 199°
2026-04-15 00:26 5.18858 -75.69411 15401 ft 342 kts 199°
2026-04-15 00:26 5.16633 -75.70184 14981 ft 341 kts 198°
2026-04-15 00:27 5.14353 -75.70849 14551 ft 339 kts 192°
2026-04-15 00:27 5.12036 -75.71261 14124 ft 337 kts 186°
2026-04-15 00:27 5.09713 -75.71500 13698 ft 335 kts 185°
2026-04-15 00:27 5.07400 -75.71706 13274 ft 333 kts 184°
2026-04-15 00:28 5.05115 -75.71906 12857 ft 332 kts 185°
2026-04-15 00:28 5.02830 -75.72110 12442 ft 330 kts 185°
2026-04-15 00:28 5.00561 -75.72316 12033 ft 328 kts 185°
2026-04-15 00:28 4.98291 -75.72523 11626 ft 326 kts 185°
2026-04-15 00:29 4.96014 -75.72733 11217 ft 324 kts 185°
2026-04-15 00:29 4.93798 -75.72938 10818 ft 322 kts 185°
2026-04-15 00:29 4.91549 -75.73147 10406 ft 320 kts 185°
2026-04-15 00:29 4.89388 -75.73347 10198 ft 310 kts 185°
2026-04-15 00:30 4.87276 -75.73543 10065 ft 299 kts 185°
2026-04-15 00:30 4.85192 -75.73737 9675 ft 298 kts 185°
2026-04-15 00:30 4.83149 -75.73926 9293 ft 296 kts 185°
2026-04-15 00:30 4.81105 -75.73972 9054 ft 289 kts 176°
2026-04-15 00:31 4.79150 -75.73701 8845 ft 283 kts 168°
2026-04-15 00:31 4.77241 -75.73275 8614 ft 276 kts 166°
2026-04-15 00:31 4.75406 -75.72837 8407 ft 269 kts 166°
2026-04-15 00:31 4.73600 -75.72408 8212 ft 261 kts 167°
2026-04-15 00:32 4.71875 -75.72006 8033 ft 248 kts 167°
2026-04-15 00:32 4.70222 -75.71624 7849 ft 238 kts 167°
2026-04-15 00:32 4.68638 -75.71294 7691 ft 229 kts 175°
2026-04-15 00:32 4.67101 -75.71357 7774 ft 216 kts 190°
2026-04-15 00:33 4.65660 -75.71667 7567 ft 206 kts 194°
2026-04-15 00:33 4.64309 -75.72009 7258 ft 200 kts 195°
2026-04-15 00:33 4.63000 -75.72343 6923 ft 186 kts 195°
2026-04-15 00:33 4.61805 -75.72650 6673 ft 171 kts 196°
2026-04-15 00:34 4.60710 -75.72952 6503 ft 155 kts 196°
2026-04-15 00:34 4.59682 -75.73224 6422 ft 153 kts 193°
2026-04-15 00:34 4.58641 -75.73482 6330 ft 153 kts 193°
2026-04-15 00:34 4.57611 -75.73727 6255 ft 153 kts 192°
2026-04-15 00:35 4.56574 -75.73969 6056 ft 152 kts 192°
2026-04-15 00:35 4.55551 -75.74206 5855 ft 152 kts 192°
2026-04-15 00:35 4.54527 -75.74445 5658 ft 151 kts 192°
2026-04-15 00:35 4.53489 -75.74688 5450 ft 151 kts 192°
2026-04-15 00:36 4.52473 -75.74926 5253 ft 150 kts 192°
2026-04-15 00:36 4.51454 -75.75166 5055 ft 150 kts 192°
2026-04-15 00:36 4.50441 -75.75404 4858 ft 149 kts 192°
2026-04-15 00:36 4.49437 -75.75639 4651 ft 149 kts 192°
2026-04-15 00:37 4.48430 -75.75864 4471 ft 148 kts 192°
2026-04-15 00:37 4.47433 -75.76110 4280 ft 148 kts 192°
2026-04-15 00:37 4.46426 -75.76335 4111 ft 148 kts 192°
2026-04-15 00:37 4.45441 -75.76571 3991 ft 136 kts 192°
2026-04-15 00:38 4.44770 -75.76732 3981 ft 54 kts 192°
2026-04-15 00:38 4.44434 -75.76812 3969 ft 48 kts 193°
2026-04-15 00:38 4.44198 -75.76862 3959 ft 14 kts 167°
2026-04-15 00:38 4.44161 -75.76877 3958 ft 4 kts
2026-04-15 00:39 4.44209 -75.76866 3960 ft 12 kts 14°
2026-04-15 00:39 4.44335 -75.76835 3965 ft 24 kts 14°
2026-04-15 00:39 4.44515 -75.76791 3972 ft 27 kts 12°
2026-04-15 00:39 4.44725 -75.76741 3980 ft 33 kts 14°
2026-04-15 00:40 4.44937 -75.76691 3985 ft 29 kts 13°
2026-04-15 00:40 4.45121 -75.76646 3988 ft 25 kts 14°
2026-04-15 00:40 4.45225 -75.76686 3989 ft 11 kts 307°
2026-04-15 00:40 4.45297 -75.76694 3990 ft 10 kts 12°
2026-04-15 00:41 4.45362 -75.76678 3990 ft 4 kts 13°
2026-04-15 00:41 4.45389 -75.76681 3990 ft 4 kts 320°
2026-04-15 00:41 4.45394 -75.76699 3990 ft 3 kts 276°
2026-04-15 00:41 4.45400 -75.76731 3990 ft 4 kts 282°
2026-04-15 00:42 4.45401 -75.76735 3990 ft 0 kts 282°